This is the latest recevied weather packets stored in our database for station/object DL4JCP-6. If no packets are shown the sender has not sent any weather packets the latest 1 day(s).
| Time | Temp. | Humidity | Pressure | Rain* | Wind** | Luminosity | Snow |
|---|---|---|---|---|---|---|---|
| 1777984991 | 17.78° C | 78% | 1009.4 hPa | 0 mm | 2.24 m/s, 32° | - | - |
| 1777984690 | 17.78° C | 78% | 1009.4 hPa | 0 mm | 2.68 m/s, 323° | - | - |
| 1777984397 | 17.78° C | 79% | 1009.3 hPa | 0 mm | 2.24 m/s, 10° | - | - |
| 1777984390 | 17.78° C | 79% | 1009.3 hPa | 0 mm | 1.79 m/s, 10° | - | - |
| 1777984090 | 17.78° C | 78% | 1009.4 hPa | 0 mm | 2.68 m/s, 5° | - | - |
| 1777983790 | 18.33° C | 76% | 1009.5 hPa | 0 mm | 3.13 m/s, 11° | - | - |
| 1777983498 | 18.33° C | 76% | 1009.5 hPa | 0 mm | 1.79 m/s, 294° | - | - |
| 1777983494 | 18.33° C | 76% | 1009.5 hPa | 0 mm | 0.89 m/s, 294° | - | - |
| 1777983190 | 18.89° C | 77% | 1009.7 hPa | 0 mm | 1.79 m/s, 348° | - | - |
| 1777982891 | 18.33° C | 77% | 1009.6 hPa | 0 mm | 1.34 m/s, 321° | - | - |
| 1777982594 | 18.33° C | 75% | 1009.6 hPa | 0 mm | 1.34 m/s, 351° | - | - |
| 1777982590 | 18.33° C | 75% | 1009.6 hPa | 0 mm | 1.79 m/s, 351° | - | - |
| 1777982290 | 18.33° C | 73% | 1009.8 hPa | 0.25 mm | 2.24 m/s, 79° | - | - |
| 1777981990 | 18.33° C | 74% | 1009.9 hPa | 0.76 mm | 1.79 m/s, 42° | - | - |
| 1777981694 | 18.33° C | 77% | 1009.9 hPa | 0.76 mm | 1.34 m/s, 346° | - | - |
| 1777980797 | 16.67° C | 82% | 1009.9 hPa | 0.76 mm | 0.89 m/s, 81° | - | - |
| 1777979894 | 16.11° C | 85% | 1010 hPa | 0.76 mm | 0.89 m/s, 20° | - | - |
| 1777978994 | 16.11° C | 83% | 1009.9 hPa | 0.76 mm | 1.34 m/s, 10° | - | - |
| 1777978094 | 16.67° C | 78% | 1009.8 hPa | 0 mm | 0.89 m/s, 318° | - | - |
| 1777977194 | 17.22° C | 73% | 1010.1 hPa | 0 mm | 1.34 m/s, 349° | - | - |
| 1777976294 | 17.78° C | 72% | 1010 hPa | 0 mm | 1.34 m/s, 355° | - | - |
| 1777975394 | 18.33° C | 72% | 1010.4 hPa | 0 mm | 1.34 m/s, 309° | - | - |
| 1777974496 | 18.33° C | 65% | 1010.4 hPa | 0 mm | 1.34 m/s, 44° | - | - |
| 1777973597 | 18.89° C | 69% | 1010.5 hPa | 0 mm | 1.79 m/s, 344° | - | - |
| 1777972696 | 18.33° C | 75% | 1010.7 hPa | 0 mm | 1.79 m/s, 11° | - | - |
* Rain latest hour (hover to see other rain measurements)
** Current wind speed in m/s (hover to see current wind gust speed)